Location: Newark
(46.7000°N, 60.6000°W)
Time: 10:04:28
(UTC+00:00)

Transit 2A Rocket - Pass Details

Date: 28 October 2020
Orbit: 588 x 915 km, 66.7° (Epoch: 23 November)

Event Time Altitude Azimuth Distance (km) Brightness Sun altitude
Rises 22:46:13 0° 322° (NW) 3,288 8.9 -20.1°
Reaches altitude 10° 22:48:50 10° 316° (NW) 2,300 8.1 -20.5°
Maximum altitude 22:53:46 44° 245° (WSW) 977 5.9 -21.3°
Drops below altitude 10° 22:58:15 10° 174° (S) 2,086 7.2 -22.1°
Enters shadow 22:58:58 - 171° (S) 2,348 7.4 -22.2°
Sets 23:00:31 0° 168° (SSE) 2,949 - -22.5°
